User: anonymous   Login
Location: Unspecified
(0.0000°N, 0.0000°E)
Time: 09:39:21
(UTC+00:00)
Language:

FUSE - Orbit

View from above orbital plane
View from above orbital plane
View from above satellite
View from above satellite

Ground track
Ground track

The orbit data is extracted from the following two-line orbital elements,

1 25791U 99035A   21125.91230705  .00000228  00000-0  13935-4 0  9995
2 25791  24.9856 331.2193 0010280 204.2903 155.7120 14.42837159153737
Epoch (UTC): 05 May 2021 21:53:43
Eccentricity: 0.0010280
inclination: 24.9856°
perigee height: 742 km
apogee height: 756 km
right ascension of ascending node: 331.2193°
argument of perigee: 204.2903°
revolutions per day: 14.42837159
mean anomaly at epoch: 155.7120°
orbit number at epoch: 15373

The dashed part of the orbit path shows where the satellite is in the earth's shadow,  

DLR